Tracking 18852 objects as of 24-Nov-2017
HD Live streaming from Space Station
objects crossing your sky now

FENGYUN 1C DEB

Track FENGYUN 1C DEB now!
10-day predictions


NORAD ID: 30562
Int'l Code: 1999-025ALC
Perigee: 817.2 km
Apogee: 916.8 km
Inclination: 99.0 °
Period: 102.1 minutes
Semi major axis: 7238 km
RCS: 0.043 m2 (small)
Launch date: May 10, 1999
Source: People's Republic of China (PRC)
Launch site: Taiyaun Space Center, China (TSC)

Note: This is SATELLITE DEBRIS
aabbcc
Your satellite tracking list
Your tracking list is empty




NASA's NSSDC Master Catalog

Two Line Element Set (TLE):
1 30562U 99025ALC 17327.14094324 +.00000750 +00000-0 +44195-3 0  9996
2 30562 098.9786 017.8192 0068815 330.0776 087.0273 14.09855560554450
Source of the keplerian elements: AFSPC